Weather History for Newark Heath, OH

Change the Weather History Date:

Monday, March 25, 2013

  Actual Average Record
Temperature  
Mean Temperature 34 °F -  
Max Temperature 35 °F 53 °F 85 °F (1945)
Min Temperature 33 °F 29 °F 0 °F (1974)
Degree Days  
Heating Degree Days 31    
Moisture  
Dew Point 31 °F    
Average Humidity 89    
Maximum Humidity 96    
Minimum Humidity 81    
Precipitation  
Precipitation 0.19 in - - ()
Sea Level Pressure  
Sea Level Pressure 29.55 in    
Wind  
Wind Speed 5 mph (West)    
Max Wind Speed 13 mph    
Max Gust Speed -    
Visibility 4 miles    
Events Fog , Snow    
Averages and records for this station are not official NWS values.
T = Trace of Precipitation, MM = Missing Value Source: NWS Daily Summary

Daily Weather History Graph

Daily Weather History Graph

Search for Another Location

Airport:

Trip Planner

Search our weather history database for the weather conditions in past years. The results will help you decide how hot, cold, wet, or windy it might be!

Date:

Astronomy

Mar. 25, 2013 Rise Set
Actual Time 7:24 AM EDT 7:47 PM EDT
Civil Twilight 6:57 AM EDT 8:14 PM EDT
Nautical Twilight 6:25 AM EDT 8:46 PM EDT
Astronomical Twilight 5:53 AM EDT 9:19 PM EDT
Moon 6:17 PM EDT (3/25) 6:07 AM EDT (3/25)
Length of Visible Light 13h 16m
Length of Day
12h 22m
Waxing Gibbous, 96% of the Moon is Illuminated
Mar 25
Waxing Gibbous
Mar 27
Full
Apr 3
Last Quarter
Apr 10
New
Apr 18
First Quarter

Hourly Weather History & Observations

Time (EDT) Temp. Windchill Dew Point Humidity Pressure Visibility Wind Dir Wind Speed Gust Speed Precip Events Conditions
12:14 AM 33.8 °F 29.6 °F 32.0 °F 93% 29.42 in 0.5 mi NE 4.6 mph - 0.08 in Fog , Snow Snow
12:43 AM 33.8 °F - 32.0 °F 93% 29.41 in 1.0 mi Calm Calm - 0.12 in Snow Light Snow
12:54 AM 33.1 °F 30.0 °F 32.0 °F 96% 29.42 in 1.0 mi NE 3.5 mph - 0.13 in Snow Light Snow
1:54 AM 33.1 °F 28.7 °F 32.0 °F 96% 29.42 in 2.0 mi ENE 4.6 mph - 0.03 in Snow Light Snow
2:04 AM 33.8 °F 30.8 °F 30.2 °F 87% 29.40 in 2.0 mi ENE 3.5 mph - 0.00 in Snow Light Snow
2:24 AM 33.8 °F - 32.0 °F 93% 29.40 in 1.5 mi Calm Calm - 0.01 in Snow Light Snow
2:54 AM 33.1 °F - 32.0 °F 96% 29.41 in 2.0 mi Calm Calm - 0.02 in Snow Light Snow
3:03 AM 33.8 °F - 32.0 °F 93% 29.39 in 3.0 mi Calm Calm - 0.00 in   Overcast
3:24 AM 33.8 °F - 32.0 °F 93% 29.38 in 4.0 mi Calm Calm - 0.00 in   Overcast
3:54 AM 33.1 °F - 30.9 °F 92% 29.40 in 4.0 mi Calm Calm - 0.00 in   Overcast
4:54 AM 33.1 °F - 32.0 °F 96% 29.40 in 4.0 mi Calm Calm - N/A   Overcast
5:45 AM 33.8 °F 27.7 °F 32.0 °F 93% 29.38 in 2.5 mi SSW 6.9 mph - N/A   Overcast
5:54 AM 34.0 °F 28.0 °F 32.0 °F 92% 29.40 in 1.8 mi SSW 6.9 mph - N/A   Overcast
6:11 AM 33.8 °F 27.7 °F 32.0 °F 93% 29.39 in 1.0 mi SSW 6.9 mph - N/A   Overcast
6:54 AM 33.1 °F 26.9 °F 32.0 °F 96% 29.42 in 1.8 mi SW 6.9 mph - N/A   Overcast
7:03 AM 33.8 °F 27.7 °F 32.0 °F 93% 29.40 in 2.0 mi SW 6.9 mph - N/A   Overcast
7:17 AM 33.8 °F 28.6 °F 32.0 °F 93% 29.40 in 4.0 mi SW 5.8 mph - N/A   Overcast
7:35 AM 33.8 °F 27.7 °F 32.0 °F 93% 29.41 in 3.0 mi SW 6.9 mph - 0.00 in Snow Light Snow
7:54 AM 34.0 °F 27.2 °F 32.0 °F 92% 29.44 in 2.5 mi SW 8.1 mph - 0.00 in Snow Light Snow
8:03 AM 33.8 °F 27.7 °F 32.0 °F 93% 29.42 in 2.5 mi SW 6.9 mph - 0.00 in Snow Light Snow
8:17 AM 33.8 °F 25.8 °F 32.0 °F 93% 29.42 in 3.0 mi SSW 10.4 mph - 0.00 in   Overcast
8:41 AM 33.8 °F 27.0 °F 30.2 °F 87% 29.43 in 3.0 mi SW 8.1 mph - 0.00 in   Overcast
8:54 AM 34.0 °F 26.6 °F 30.9 °F 89% 29.45 in 1.8 mi SW 9.2 mph - 0.00 in Snow Light Snow
9:00 AM 33.8 °F 27.7 °F 30.2 °F 87% 29.43 in 1.2 mi SW 6.9 mph - 0.00 in Snow Light Snow
9:54 AM 34.0 °F 28.0 °F 30.9 °F 89% 29.46 in 2.0 mi WSW 6.9 mph - 0.00 in Snow Light Snow
10:10 AM 33.8 °F 28.6 °F 30.2 °F 87% 29.45 in 4.0 mi SW 5.8 mph - 0.00 in   Overcast
10:26 AM 33.8 °F 26.4 °F 30.2 °F 87% 29.45 in 8.0 mi SW 9.2 mph - 0.00 in   Overcast
10:54 AM 34.0 °F 26.0 °F 30.0 °F 85% 29.48 in 10.0 mi WSW 10.4 mph - 0.00 in   Overcast
11:54 AM 34.0 °F 27.2 °F 28.9 °F 82% 29.51 in 10.0 mi SW 8.1 mph - N/A   Overcast
12:54 PM 34.0 °F 27.2 °F 28.9 °F 82% 29.53 in 9.0 mi WSW 8.1 mph - N/A   Overcast
1:54 PM 34.0 °F 27.2 °F 28.9 °F 82% 29.55 in 6.0 mi WSW 8.1 mph - N/A   Haze
2:15 PM 33.8 °F 27.7 °F 30.2 °F 87% 29.53 in 7.0 mi WSW 6.9 mph - N/A   Overcast
2:43 PM 33.8 °F 27.7 °F 30.2 °F 87% 29.54 in 6.0 mi WSW 6.9 mph - N/A   Overcast
2:54 PM 35.1 °F 29.3 °F 30.0 °F 82% 29.56 in 6.0 mi WSW 6.9 mph - N/A   Haze
3:54 PM 35.1 °F 32.2 °F 30.9 °F 85% 29.59 in 5.0 mi WNW 3.5 mph - 0.00 in   Overcast
4:54 PM 35.1 °F 30.1 °F 30.9 °F 85% 29.61 in 4.0 mi WNW 5.8 mph - 0.01 in   Overcast
5:10 PM 35.6 °F 29.9 °F 30.2 °F 81% 29.60 in 5.0 mi NW 6.9 mph - 0.00 in   Overcast
5:54 PM 35.1 °F 27.4 °F 30.0 °F 82% 29.64 in 8.0 mi NW 10.4 mph - 0.00 in   Overcast
6:36 PM 35.6 °F 29.2 °F 30.2 °F 81% 29.65 in 8.0 mi NW 8.1 mph - N/A   Overcast
6:54 PM 35.1 °F 26.4 °F 30.0 °F 82% 29.69 in 9.0 mi NNW 12.7 mph - N/A   Overcast
7:54 PM 34.0 °F 26.0 °F 30.0 °F 85% 29.73 in 2.5 mi NW 10.4 mph - 0.00 in Snow Light Snow
8:05 PM 33.8 °F 27.0 °F 30.2 °F 87% 29.72 in 2.5 mi NW 8.1 mph - 0.00 in Snow Light Snow
8:54 PM 34.0 °F 26.6 °F 30.9 °F 89% 29.77 in 2.0 mi NW 9.2 mph - 0.00 in Snow Light Snow
9:02 PM 33.8 °F 26.4 °F 30.2 °F 87% 29.75 in 2.5 mi NW 9.2 mph - 0.00 in Snow Light Snow
9:11 PM 33.8 °F 25.8 °F 30.2 °F 87% 29.76 in 3.0 mi NW 10.4 mph - 0.00 in Snow Light Snow
9:54 PM 34.0 °F 26.6 °F 30.0 °F 85% 29.81 in 3.0 mi NW 9.2 mph - 0.00 in Snow Light Snow
10:38 PM 33.8 °F 27.0 °F 30.2 °F 87% 29.80 in 2.5 mi NW 8.1 mph - 0.00 in Snow Light Snow
10:46 PM 33.8 °F 27.0 °F 30.2 °F 87% 29.81 in 2.5 mi NW 8.1 mph - 0.00 in Snow Light Snow
10:51 PM 33.8 °F 27.7 °F 30.2 °F 87% 29.81 in 3.0 mi NW 6.9 mph - 0.00 in Snow Light Snow
10:54 PM 34.0 °F 28.0 °F 30.9 °F 89% 29.83 in 3.0 mi NW 6.9 mph - 0.00 in Snow Light Snow
10:56 PM 33.8 °F 27.0 °F 30.2 °F 87% 29.81 in 3.0 mi NW 8.1 mph - 0.00 in Snow Light Snow
10:58 PM 33.8 °F 27.0 °F 30.2 °F 87% 29.81 in 3.0 mi NW 8.1 mph - 0.00 in Snow Light Snow
11:20 PM 33.8 °F 26.4 °F 30.2 °F 87% 29.82 in 5.0 mi NNW 9.2 mph - 0.00 in Snow Light Snow
11:54 PM 34.0 °F 26.6 °F 30.9 °F 89% 29.86 in 5.0 mi NNW 9.2 mph - 0.00 in Snow Light Snow